This is the latest recevied weather packets stored in our database for station/object KF4UQS-14. If no packets are shown the sender has not sent any weather packets the latest 10 day(s).
| Time | Temp. | Humidity | Pressure | Rain* | Wind** | Luminosity | Snow |
|---|---|---|---|---|---|---|---|
| 1777832409 | 16.11° C | 37% | 1017.2 hPa | 0 mm | - | 755 W/m² | - |
| 1777832106 | 15.56° C | 38% | 1017.2 hPa | 0 mm | - | 760 W/m² | - |
| 1777831802 | 16.11° C | 39% | 1017.1 hPa | 0 mm | - | 766 W/m² | - |
| 1777831500 | 15.56° C | 37% | 1017.3 hPa | 0 mm | - | 771 W/m² | - |
| 1777831197 | 15.56° C | 38% | 1017.2 hPa | 0 mm | - | 777 W/m² | - |
| 1777830895 | 15.56° C | 37% | 1017.2 hPa | 0 mm | - | 781 W/m² | - |
| 1777830591 | 15.56° C | 39% | 1017.1 hPa | 0 mm | - | 784 W/m² | - |
| 1777830289 | 15.56° C | 37% | 1017.3 hPa | 0 mm | - | 786 W/m² | - |
| 1777829984 | 15° C | 39% | 1017.4 hPa | 0 mm | - | 793 W/m² | - |
| 1777829680 | 15° C | 40% | 1017.5 hPa | 0 mm | - | 793 W/m² | - |
| 1777829377 | 15° C | 40% | 1017.4 hPa | 0 mm | - | 795 W/m² | - |
| 1777829075 | 15.56° C | 39% | 1017.5 hPa | 0 mm | - | 801 W/m² | - |
| 1777828771 | 15° C | 39% | 1017.4 hPa | 0 mm | - | 795 W/m² | - |
| 1777828468 | 15° C | 40% | 1017.5 hPa | 0 mm | - | 802 W/m² | - |
| 1777828166 | 15° C | 40% | 1017.5 hPa | 0 mm | - | 806 W/m² | - |
| 1777827861 | 15° C | 42% | 1017.7 hPa | 0 mm | - | 803 W/m² | - |
| 1777827559 | 15° C | 40% | 1017.7 hPa | 0 mm | - | 802 W/m² | - |
| 1777827256 | 15° C | 42% | 1017.7 hPa | 0 mm | - | 802 W/m² | - |
| 1777826952 | 15° C | 41% | 1017.9 hPa | 0 mm | - | 803 W/m² | - |
| 1777826650 | 15° C | 41% | 1017.7 hPa | 0 mm | - | 799 W/m² | - |
| 1777826346 | 15° C | 41% | 1017.7 hPa | 0 mm | - | 797 W/m² | - |
| 1777826044 | 14.44° C | 42% | 1017.8 hPa | 0 mm | - | 795 W/m² | - |
| 1777825740 | 13.89° C | 43% | 1017.8 hPa | 0 mm | - | 792 W/m² | - |
| 1777825438 | 13.89° C | 42% | 1018 hPa | 0 mm | - | 790 W/m² | - |
| 1777825135 | 13.89° C | 41% | 1017.7 hPa | 0 mm | - | 785 W/m² | - |
* Rain latest hour (hover to see other rain measurements)
** Current wind speed in m/s (hover to see current wind gust speed)